CGNBR ENGS-ENOP

Flight info

Callsign CGNBR
Flight time 0h 52m
Altitude 2500
Route ENGS ENLN ENOP
Aircraft SPIT/L-V/N

Departure

Time 2026-05-05 20:03
Airport Snåsa Airfield Grønøra (ENGS)

Arrival

Time 2026-05-05 20:55
Airport Fagerhaug Airfield (ENOP)
Time Latitude Longitude Altitude Speed Heading
2026-05-05 19:54 64.18120 12.16601 192 ft 0 kts 47°
2026-05-05 19:55 64.18069 12.16623 192 ft 0 kts 47°
2026-05-05 19:55 64.18066 12.16539 192 ft 0 kts 47°
2026-05-05 20:02 64.18069 12.16545 192 ft 8 kts 34°
2026-05-05 20:03 64.18316 12.17077 190 ft 93 kts 46°
2026-05-05 20:03 64.19114 12.18215 543 ft 113 kts 351°
2026-05-05 20:03 64.19599 12.17635 566 ft 134 kts 298°
2026-05-05 20:03 64.19377 12.15477 690 ft 119 kts 226°
2026-05-05 20:04 64.18729 12.14764 1672 ft 113 kts 215°
2026-05-05 20:04 64.18048 12.13562 1852 ft 137 kts 232°
2026-05-05 20:04 64.17552 12.11590 2074 ft 149 kts 251°
2026-05-05 20:04 64.17191 12.09309 2305 ft 155 kts 253°
2026-05-05 20:05 64.16843 12.06929 2531 ft 159 kts 254°
2026-05-05 20:05 64.16491 12.04495 2758 ft 162 kts 254°
2026-05-05 20:05 64.16125 12.01993 2812 ft 166 kts 254°
2026-05-05 20:05 64.15770 11.99490 2806 ft 164 kts 255°
2026-05-05 20:06 64.15412 11.97007 2807 ft 165 kts 254°
2026-05-05 20:06 64.15051 11.94518 2808 ft 164 kts 254°
2026-05-05 20:06 64.14696 11.92077 2806 ft 164 kts 254°
2026-05-05 20:06 64.14383 11.89933 2808 ft 163 kts 255°
2026-05-05 20:07 64.14026 11.87467 2807 ft 164 kts 255°
2026-05-05 20:07 64.13665 11.84992 2806 ft 164 kts 255°
2026-05-05 20:07 64.13309 11.82558 2807 ft 165 kts 255°
2026-05-05 20:07 64.12959 11.80166 2821 ft 166 kts 255°
2026-05-05 20:08 64.12593 11.77651 2820 ft 167 kts 254°
2026-05-05 20:08 64.12223 11.75135 2820 ft 166 kts 255°
2026-05-05 20:08 64.11881 11.72812 2819 ft 165 kts 255°
2026-05-05 20:08 64.11516 11.70317 2819 ft 166 kts 254°
2026-05-05 20:09 64.11147 11.67817 2825 ft 166 kts 254°
2026-05-05 20:09 64.10756 11.65330 2814 ft 167 kts 248°
2026-05-05 20:09 64.09971 11.63330 2813 ft 174 kts 221°
2026-05-05 20:09 64.08811 11.62388 2808 ft 184 kts 192°
2026-05-05 20:10 64.07529 11.62433 2808 ft 184 kts 187°
2026-05-05 20:10 64.06695 11.62086 2808 ft 175 kts 209°
2026-05-05 20:10 64.06005 11.61075 2803 ft 170 kts 227°
2026-05-05 20:10 64.05239 11.59065 2803 ft 168 kts 234°
2026-05-05 20:11 64.04493 11.57024 2810 ft 167 kts 235°
2026-05-05 20:11 64.03758 11.54960 2810 ft 168 kts 236°
2026-05-05 20:11 64.03019 11.52884 2807 ft 169 kts 235°
2026-05-05 20:11 64.02276 11.50807 2818 ft 169 kts 235°
2026-05-05 20:12 64.01535 11.48741 2816 ft 171 kts 234°
2026-05-05 20:12 64.00766 11.46634 2815 ft 171 kts 235°
2026-05-05 20:12 64.00135 11.44388 2813 ft 167 kts 251°
2026-05-05 20:12 63.99710 11.41971 2814 ft 166 kts 250°
2026-05-05 20:13 63.99257 11.39545 2811 ft 167 kts 250°
2026-05-05 20:13 63.98801 11.37122 2814 ft 166 kts 250°
2026-05-05 20:13 63.98349 11.34707 2815 ft 165 kts 250°
2026-05-05 20:13 63.97897 11.32296 2829 ft 166 kts 250°
2026-05-05 20:14 63.97443 11.29880 2824 ft 166 kts 250°
2026-05-05 20:14 63.97005 11.27551 2827 ft 166 kts 250°
2026-05-05 20:14 63.96550 11.25140 2825 ft 167 kts 249°
2026-05-05 20:14 63.96075 11.22702 2826 ft 169 kts 250°
2026-05-05 20:15 63.95663 11.20517 2830 ft 170 kts 250°
2026-05-05 20:15 63.95203 11.18066 2829 ft 171 kts 250°
2026-05-05 20:15 63.94734 11.15570 2830 ft 172 kts 250°
2026-05-05 20:15 63.94273 11.13126 2831 ft 172 kts 250°
2026-05-05 20:16 63.93831 11.10791 2827 ft 173 kts 250°
2026-05-05 20:16 63.93405 11.08547 2823 ft 172 kts 250°
2026-05-05 20:16 63.93059 11.06729 2825 ft 172 kts 250°
2026-05-05 20:16 63.92632 11.04477 2825 ft 171 kts 250°
2026-05-05 20:17 63.92625 11.04438 2826 ft 171 kts 250°
2026-05-05 20:17 63.92142 11.01903 2830 ft 172 kts 250°
2026-05-05 20:17 63.91671 10.99441 2831 ft 172 kts 250°
2026-05-05 20:17 63.91194 10.96961 2835 ft 170 kts 250°
2026-05-05 20:18 63.90728 10.94502 2837 ft 168 kts 251°
2026-05-05 20:18 63.90179 10.92342 2837 ft 171 kts 239°
2026-05-05 20:18 63.89572 10.90359 2839 ft 171 kts 240°
2026-05-05 20:18 63.89275 10.89401 2839 ft 171 kts 239°
2026-05-05 20:19 63.88744 10.87691 2839 ft 172 kts 239°
2026-05-05 20:19 63.88566 10.87120 2838 ft 172 kts 239°
2026-05-05 20:19 63.87891 10.84943 2839 ft 171 kts 239°
2026-05-05 20:19 63.87208 10.82733 2839 ft 172 kts 239°
2026-05-05 20:20 63.86520 10.80501 2839 ft 172 kts 239°
2026-05-05 20:20 63.85832 10.78268 2839 ft 173 kts 239°
2026-05-05 20:20 63.85141 10.76030 2841 ft 174 kts 239°
2026-05-05 20:20 63.84448 10.73786 2845 ft 174 kts 239°
2026-05-05 20:21 63.83742 10.71547 2840 ft 176 kts 237°
2026-05-05 20:21 63.83030 10.69298 2841 ft 175 kts 239°
2026-05-05 20:21 63.82341 10.67021 2841 ft 176 kts 239°
2026-05-05 20:21 63.81760 10.65134 2840 ft 174 kts 239°
2026-05-05 20:22 63.81415 10.64017 2840 ft 173 kts 239°
2026-05-05 20:22 63.80730 10.61787 2848 ft 172 kts 239°
2026-05-05 20:22 63.80039 10.59561 2846 ft 173 kts 238°
2026-05-05 20:22 63.79349 10.57330 2845 ft 172 kts 239°
2026-05-05 20:23 63.78660 10.55117 2846 ft 172 kts 239°
2026-05-05 20:23 63.78023 10.53065 2848 ft 173 kts 238°
2026-05-05 20:23 63.77424 10.51132 2848 ft 174 kts 238°
2026-05-05 20:23 63.76727 10.48891 2849 ft 174 kts 237°
2026-05-05 20:24 63.76033 10.46696 2857 ft 174 kts 239°
2026-05-05 20:24 63.75350 10.44434 2860 ft 174 kts 239°
2026-05-05 20:24 63.74654 10.42214 2861 ft 174 kts 238°
2026-05-05 20:24 63.74217 10.40824 2861 ft 175 kts 238°
2026-05-05 20:25 63.73554 10.38542 2863 ft 173 kts 241°
2026-05-05 20:25 63.72891 10.36287 2865 ft 171 kts 240°
2026-05-05 20:25 63.72230 10.34048 2865 ft 172 kts 240°
2026-05-05 20:25 63.71753 10.32414 2868 ft 172 kts 240°
2026-05-05 20:26 63.71146 10.30332 2860 ft 173 kts 240°
2026-05-05 20:26 63.70488 10.28075 2853 ft 170 kts 240°
2026-05-05 20:26 63.69854 10.25919 2859 ft 162 kts 240°
2026-05-05 20:26 63.69227 10.23791 2861 ft 165 kts 240°
2026-05-05 20:27 63.68593 10.21611 2844 ft 168 kts 240°
2026-05-05 20:27 63.67967 10.19485 2864 ft 160 kts 240°
2026-05-05 20:27 63.67514 10.17966 2869 ft 161 kts 240°
2026-05-05 20:27 63.67004 10.16225 2863 ft 163 kts 241°
2026-05-05 20:28 63.66397 10.14130 2865 ft 162 kts 241°
2026-05-05 20:28 63.65781 10.12045 2856 ft 158 kts 241°
2026-05-05 20:28 63.65177 10.10002 2882 ft 160 kts 242°
2026-05-05 20:28 63.64640 10.08171 2867 ft 161 kts 241°
2026-05-05 20:29 63.63993 10.05987 2874 ft 165 kts 240°
2026-05-05 20:29 63.63396 10.03953 2870 ft 164 kts 240°
2026-05-05 20:29 63.62909 10.02321 2883 ft 166 kts 240°
2026-05-05 20:29 63.62343 10.00401 2874 ft 168 kts 240°
2026-05-05 20:30 63.61691 9.98203 2882 ft 169 kts 240°
2026-05-05 20:30 63.61053 9.96057 2873 ft 169 kts 239°
2026-05-05 20:30 63.60534 9.94305 2879 ft 169 kts 240°
2026-05-05 20:30 63.59903 9.92206 2876 ft 169 kts 236°
2026-05-05 20:31 63.58978 9.90591 2871 ft 175 kts 210°
2026-05-05 20:31 63.57762 9.90068 2867 ft 185 kts 183°
2026-05-05 20:31 63.56486 9.90723 2871 ft 190 kts 170°
2026-05-05 20:31 63.55209 9.91537 2873 ft 191 kts 170°
2026-05-05 20:32 63.54165 9.92182 2875 ft 191 kts 170°
2026-05-05 20:32 63.53867 9.92364 2884 ft 191 kts 170°
2026-05-05 20:32 63.52538 9.93185 2876 ft 192 kts 170°
2026-05-05 20:32 63.51319 9.93939 2884 ft 192 kts 170°
2026-05-05 20:33 63.50084 9.94697 2874 ft 192 kts 170°
2026-05-05 20:33 63.48799 9.95490 2870 ft 192 kts 170°
2026-05-05 20:33 63.47506 9.96281 2868 ft 191 kts 170°
2026-05-05 20:33 63.46932 9.96633 2867 ft 191 kts 170°
2026-05-05 20:34 63.45652 9.97420 2866 ft 190 kts 170°
2026-05-05 20:34 63.44377 9.98204 2864 ft 190 kts 170°
2026-05-05 20:34 63.43105 9.98985 2862 ft 190 kts 171°
2026-05-05 20:34 63.41850 9.99751 2860 ft 191 kts 171°
2026-05-05 20:35 63.40565 10.00541 2859 ft 192 kts 171°
2026-05-05 20:35 63.39363 10.01275 2856 ft 193 kts 172°
2026-05-05 20:35 63.38078 10.02063 2873 ft 193 kts 172°
2026-05-05 20:35 63.37178 10.02776 2855 ft 199 kts 159°
2026-05-05 20:36 63.36623 10.03618 2858 ft 204 kts 145°
2026-05-05 20:36 63.36423 10.04022 2857 ft 205 kts 141°
2026-05-05 20:36 63.36020 10.05059 2855 ft 208 kts 130°
2026-05-05 20:36 63.35181 10.07834 2858 ft 209 kts 127°
2026-05-05 20:37 63.34363 10.10518 2853 ft 209 kts 128°
2026-05-05 20:37 63.33541 10.13189 2860 ft 209 kts 128°
2026-05-05 20:37 63.32735 10.15809 2853 ft 208 kts 128°
2026-05-05 20:37 63.31809 10.18221 2850 ft 203 kts 147°
2026-05-05 20:38 63.30677 10.19633 2856 ft 197 kts 165°
2026-05-05 20:38 63.30421 10.19849 2862 ft 197 kts 166°
2026-05-05 20:38 63.29666 10.20477 2861 ft 198 kts 165°
2026-05-05 20:38 63.28372 10.21598 2857 ft 199 kts 165°
2026-05-05 20:39 63.27084 10.22720 2859 ft 199 kts 165°
2026-05-05 20:39 63.25791 10.23829 2865 ft 199 kts 165°
2026-05-05 20:39 63.24514 10.24929 2858 ft 198 kts 165°
2026-05-05 20:39 63.23228 10.26031 2858 ft 197 kts 164°
2026-05-05 20:40 63.22189 10.26971 2860 ft 194 kts 163°
2026-05-05 20:40 63.20941 10.28064 2849 ft 191 kts 166°
2026-05-05 20:40 63.19704 10.29059 2855 ft 187 kts 173°
2026-05-05 20:40 63.18739 10.29241 2846 ft 175 kts 191°
2026-05-05 20:41 63.17857 10.29143 2860 ft 170 kts 189°
2026-05-05 20:41 63.16676 10.29140 2868 ft 171 kts 188°
2026-05-05 20:41 63.15476 10.29109 2870 ft 175 kts 188°
2026-05-05 20:41 63.14245 10.29062 2870 ft 179 kts 188°
2026-05-05 20:42 63.12983 10.29015 2869 ft 183 kts 188°
2026-05-05 20:42 63.11775 10.28975 2869 ft 183 kts 188°
2026-05-05 20:42 63.10495 10.28940 2861 ft 185 kts 188°
2026-05-05 20:42 63.09223 10.28902 2863 ft 181 kts 188°
2026-05-05 20:43 63.08399 10.28868 2874 ft 182 kts 188°
2026-05-05 20:43 63.07139 10.28807 2870 ft 184 kts 188°
2026-05-05 20:43 63.06066 10.28777 2828 ft 185 kts 187°
2026-05-05 20:43 63.04790 10.28750 2853 ft 183 kts 186°
2026-05-05 20:44 63.03547 10.28443 2855 ft 176 kts 206°
2026-05-05 20:44 63.02491 10.27213 2854 ft 171 kts 218°
2026-05-05 20:44 63.01854 10.26367 2857 ft 171 kts 218°
2026-05-05 20:44 63.01344 10.25701 2859 ft 171 kts 218°
2026-05-05 20:45 63.01275 10.25610 2860 ft 171 kts 218°
2026-05-05 20:45 63.01233 10.25555 2861 ft 171 kts 218°
2026-05-05 20:45 63.00339 10.24387 2876 ft 174 kts 217°
2026-05-05 20:46 62.99292 10.22998 2854 ft 175 kts 217°
2026-05-05 20:46 62.98261 10.21651 2857 ft 169 kts 218°
2026-05-05 20:46 62.97309 10.20409 2864 ft 168 kts 218°
2026-05-05 20:46 62.96552 10.19412 2866 ft 170 kts 218°
2026-05-05 20:47 62.95530 10.18069 2863 ft 172 kts 218°
2026-05-05 20:47 62.94506 10.16717 2852 ft 170 kts 216°
2026-05-05 20:47 62.93515 10.15428 2856 ft 167 kts 217°
2026-05-05 20:47 62.92517 10.14116 2855 ft 166 kts 218°
2026-05-05 20:48 62.91524 10.12812 2854 ft 167 kts 217°
2026-05-05 20:48 62.90602 10.11602 2855 ft 168 kts 216°
2026-05-05 20:48 62.89601 10.10307 2857 ft 166 kts 218°
2026-05-05 20:48 62.88749 10.09198 2854 ft 164 kts 217°
2026-05-05 20:49 62.87762 10.07908 2857 ft 166 kts 216°
2026-05-05 20:49 62.86654 10.07055 2861 ft 172 kts 201°
2026-05-05 20:49 62.85481 10.06386 2867 ft 177 kts 202°
2026-05-05 20:49 62.84301 10.05680 2865 ft 178 kts 201°
2026-05-05 20:50 62.83872 10.05427 2867 ft 178 kts 201°
2026-05-05 20:50 62.83635 10.05289 2875 ft 178 kts 201°
2026-05-05 20:50 62.83631 10.05287 2875 ft 178 kts 201°
2026-05-05 20:50 62.82906 10.04863 2992 ft 174 kts 201°
2026-05-05 20:51 62.81752 10.04191 3160 ft 170 kts 202°
2026-05-05 20:51 62.80610 10.03512 3316 ft 170 kts 203°
2026-05-05 20:51 62.79457 10.02842 3473 ft 172 kts 203°
2026-05-05 20:51 62.78330 10.02174 3618 ft 169 kts 204°
2026-05-05 20:52 62.77219 10.01526 3642 ft 168 kts 202°
2026-05-05 20:52 62.76161 10.00904 3809 ft 169 kts 201°
2026-05-05 20:52 62.75087 10.00266 3860 ft 176 kts 200°
2026-05-05 20:52 62.73904 9.99446 3863 ft 180 kts 211°
2026-05-05 20:53 62.72904 9.97853 3861 ft 179 kts 222°
2026-05-05 20:53 62.71949 9.96290 3862 ft 178 kts 221°
2026-05-05 20:53 62.70970 9.94691 3856 ft 176 kts 220°
2026-05-05 20:53 62.70018 9.93128 3870 ft 177 kts 220°
2026-05-05 20:54 62.69309 9.91957 3845 ft 178 kts 220°
2026-05-05 20:54 62.68327 9.90411 3589 ft 171 kts 218°
2026-05-05 20:54 62.67446 9.89006 3463 ft 140 kts 221°
2026-05-05 20:54 62.66658 9.87833 3053 ft 140 kts 216°
2026-05-05 20:55 62.66224 9.87628 2618 ft 156 kts 194°
2026-05-05 20:55 62.65557 9.86967 2324 ft 122 kts 230°
2026-05-05 20:55 62.65208 9.85618 1932 ft 80 kts 247°
2026-05-05 20:55 62.65056 9.84745 1917 ft 44 kts 247°
2026-05-05 20:56 62.65003 9.84462 1914 ft 14 kts 98°
2026-05-05 20:56 62.65048 9.84623 1916 ft 12 kts 60°
2026-05-05 20:56 62.65089 9.84799 1918 ft 14 kts 70°
2026-05-05 20:56 62.65122 9.84987 1920 ft 13 kts 65°
2026-05-05 20:57 62.65146 9.85147 1920 ft 10 kts 69°
2026-05-05 20:57 62.65159 9.85271 1920 ft 8 kts 95°
2026-05-05 20:57 62.65147 9.85396 1920 ft 8 kts 107°
2026-05-05 20:57 62.65075 9.85491 1904 ft 8 kts 135°
2026-05-05 20:58 62.65073 9.85494 1904 ft 2 kts 95°
2026-05-05 20:58 62.65073 9.85495 1904 ft 0 kts 95°